This is the latest recevied weather packets stored in our database for station/object IU8UOQ-5. If no packets are shown the sender has not sent any weather packets the latest 1 day(s).
| Time | Temp. | Humidity | Pressure | Rain* | Wind** | Luminosity | Snow |
|---|---|---|---|---|---|---|---|
| 1778093589 | 22.22° C | 58% | 1007 hPa | - | - | - | - |
| 1778079172 | 22.22° C | 65% | 1007.5 hPa | - | - | - | - |
| 1778076769 | 22.22° C | 64% | 1006.6 hPa | - | - | - | - |
| 1778075568 | 22.22° C | 62% | 1006.6 hPa | - | - | - | - |
| 1778071964 | 22.22° C | 60% | 1007.2 hPa | - | - | - | - |
| 1778070763 | 22.22° C | 59% | 1007.2 hPa | - | - | - | - |
| 1778067159 | 21.67° C | 47% | 1007.2 hPa | - | - | - | - |
| 1778065958 | 21.67° C | 52% | 1007.4 hPa | - | - | - | - |
| 1778064756 | 21.67° C | 50% | 1007.5 hPa | - | - | - | - |
| 1778062354 | 21.11° C | 44% | 1007.7 hPa | - | - | - | - |
| 1778061153 | 20.56° C | 43% | 1007.8 hPa | - | - | - | - |
| 1778058750 | 20° C | 59% | 1007.5 hPa | - | - | - | - |
| 1778057549 | 20° C | 60% | 1007.7 hPa | - | - | - | - |
| 1778053945 | 20° C | 60% | 1007.6 hPa | - | - | - | - |
| 1778052744 | 20° C | 61% | 1007.8 hPa | - | - | - | - |
| 1778051543 | 20° C | 61% | 1008 hPa | - | - | - | - |
| 1778049140 | 20° C | 61% | 1007.9 hPa | - | - | - | - |
| 1778047939 | 20° C | 59% | 1007.6 hPa | - | - | - | - |
| 1778045536 | 20° C | 60% | 1007.1 hPa | - | - | - | - |
| 1778044335 | 20° C | 60% | 1007.1 hPa | - | - | - | - |
| 1778043134 | 20° C | 61% | 1007 hPa | - | - | - | - |
| 1778040731 | 20° C | 61% | 1007 hPa | - | - | - | - |
| 1778039530 | 20° C | 61% | 1006.9 hPa | - | - | - | - |
| 1778038329 | 20° C | 62% | 1006.8 hPa | - | - | - | - |
| 1778037127 | 20° C | 62% | 1006.8 hPa | - | - | - | - |
* Rain since midnight (hover to see other rain measurements)
** Current wind speed in m/s (hover to see current wind gust speed)